Toronto, Ontario

11:59 PM EDT on September 21, 2017 (GMT -0400)
Toronto

Weather History for CYTZ - September, 2013

Change the Weather History Date:

Friday, September 6, 2013

  Actual Average Record
Temperature  
Mean Temperature 58 °F -  
Max Temperature 68 °F 66 °F 89 °F (1998)
Min Temperature 48 °F 53 °F 48 °F (2013)
Degree Days  
Heating Degree Days 7    
Growing Degree Days 8 (Base 50)    
Moisture  
Dew Point 45 °F    
Average Humidity 58    
Maximum Humidity 77    
Minimum Humidity 36    
Precipitation  
Precipitation 0.00 in 0.10 in - ()
Sea Level Pressure  
Sea Level Pressure 30.22 in    
Wind  
Wind Speed 6 mph ()    
Max Wind Speed 15 mph    
Max Gust Speed -    
Visibility 9.1 miles    
Events      
Averages and records for this station are not official NWS values.
T = Trace of Precipitation, MM = Missing Value Source: Averaged Metar Reports

Daily Weather History Graph

Daily Weather History Graph

Search for Another Location

Airport or City:

Trip Planner

Search our weather history database for the weather conditions in past years. The results will help you decide how hot, cold, wet, or windy it might be!

Date:

Astronomy

Sep. 06, 2013 Rise Set
Actual Time 6:47 AM EDT 7:43 PM EDT
Civil Twilight 6:17 AM EDT 8:12 PM EDT
Nautical Twilight 5:43 AM EDT 8:47 PM EDT
Astronomical Twilight 5:06 AM EDT 9:23 PM EDT
Moon 8:01 AM EDT (9/6) 8:02 PM EDT (9/6)
Length of Visible Light 13h 54m
Length of Day
12h 56m
New Moon, 1% of the Moon is Illuminated
Sep 6
New Moon
Sep 12
First Quarter
Sep 19
Full
Sep 26
Last Quarter
Oct 4
New

Hourly Weather History & Observations

Time (EDT) Temp. Dew Point Humidity Pressure Visibility Wind Dir Wind Speed Gust Speed Precip Events Conditions
12:00 AM 55.4 °F 37.4 °F 51% 30.25 in 9.0 mi NNW 6.9 mph - N/A   Clear
1:00 AM 55.4 °F 37.4 °F 51% 30.25 in 9.0 mi NNW 6.9 mph - N/A   Clear
2:00 AM 54 °F 39 °F 45% 30.26 in 10 mi NNW 6.9 mph - -  
2:00 AM 53.6 °F 39.2 °F 58% 30.26 in 9.0 mi NW 5.8 mph - N/A   Clear
3:00 AM 53.6 °F 39.2 °F 58% 30.26 in 9.0 mi NW 6.9 mph - N/A   Clear
4:00 AM 50.0 °F 41.0 °F 71% 30.26 in 9.0 mi West 3.5 mph - N/A   Clear
5:00 AM 50.0 °F 41.0 °F 71% 30.26 in 9.0 mi NW 4.6 mph - N/A   Clear
6:00 AM 50.0 °F 41.0 °F 71% 30.27 in 9.0 mi WNW 4.6 mph - N/A   Clear
7:00 AM 50.0 °F 39.2 °F 66% 30.28 in 9.0 mi NNW 4.6 mph - N/A   Clear
8:00 AM 53 °F 41 °F 54% 30.29 in 10 mi WNW 4.6 mph - -  
8:00 AM 51.8 °F 41.0 °F 67% 30.29 in 9.0 mi WNW 4.6 mph - N/A   Clear
9:00 AM 57.2 °F 42.8 °F 59% 30.30 in 9.0 mi WNW 3.5 mph - N/A   Clear
10:00 AM 59.0 °F 42.8 °F 55% 30.30 in 9.0 mi WSW 4.6 mph - N/A   Clear
11:00 AM 60.8 °F 42.8 °F 52% 30.29 in 9.0 mi SW 9.2 mph - N/A   Clear
12:00 PM 62.6 °F 44.6 °F 52% 30.27 in 9.0 mi South 6.9 mph - N/A   Clear
1:00 PM 62.6 °F 44.6 °F 52% 30.25 in 9.0 mi SSW 6.9 mph - N/A   Clear
2:00 PM 65 °F 44 °F 36% 30.22 in 10 mi South 6.9 mph - -  
2:00 PM 64.4 °F 44.6 °F 49% 30.22 in 9.0 mi South 5.8 mph - N/A   Clear
3:00 PM 66.2 °F 44.6 °F 46% 30.19 in 9.0 mi South 5.8 mph - N/A   Partly Cloudy
4:00 PM 68.0 °F 44.6 °F 43% 30.16 in 9.0 mi South 5.8 mph - N/A   Clear
5:00 PM 68.0 °F 50.0 °F 52% 30.15 in 9.0 mi SE 5.8 mph - N/A   Partly Cloudy
6:00 PM 68.0 °F 51.8 °F 56% 30.14 in 9.0 mi South 9.2 mph - N/A   Clear
7:00 PM 66.2 °F 55.4 °F 68% 30.12 in 9.0 mi South 10.4 mph - N/A   Partly Cloudy
8:00 PM 68.0 °F 55.4 °F 64% 30.11 in 9.0 mi SSW 15.0 mph - N/A   Overcast
9:00 PM 66.2 °F 57.2 °F 73% 30.11 in 9.0 mi SW 15.0 mph - N/A   Scattered Clouds
10:00 PM 64.4 °F 57.2 °F 77% 30.09 in 9.0 mi SW 12.7 mph - N/A   Clear
11:00 PM 62.6 °F 55.4 °F 77% 30.09 in 9.0 mi West 9.2 mph - N/A   Clear